TimeEST,TemperatureF,Dew PointF,Humidity,Sea Level PressureIn,VisibilityMPH,Wind Direction,Wind SpeedMPH,Gust SpeedMPH,PrecipitationIn,Events,Conditions,WindDirDegrees,DateUTC
12:56 AM,28.9,27.0,92,30.26,4.0,West,4.6,-,N/A,,Clear,280,2013-01-04 05:56:00
1:56 AM,28.9,27.0,92,30.26,6.0,West,3.5,-,N/A,,Clear,270,2013-01-04 06:56:00
2:56 AM,28.9,26.1,89,30.29,5.0,West,3.5,-,N/A,,Clear,280,2013-01-04 07:56:00
3:56 AM,28.9,25.0,85,30.27,10.0,West,3.5,-,N/A,,Clear,280,2013-01-04 08:56:00
4:56 AM,28.9,24.1,82,30.28,10.0,WNW,4.6,-,N/A,,Clear,300,2013-01-04 09:56:00
5:56 AM,33.1,21.9,64,30.28,10.0,WNW,5.8,-,N/A,,Clear,300,2013-01-04 10:56:00
6:56 AM,33.1,21.9,64,30.28,10.0,WNW,8.1,-,N/A,,Clear,290,2013-01-04 11:56:00
7:56 AM,32.0,21.0,64,30.30,10.0,WNW,3.5,-,N/A,,Clear,300,2013-01-04 12:56:00
8:56 AM,35.1,21.9,59,30.30,10.0,NW,8.1,-,N/A,,Clear,310,2013-01-04 13:56:00
9:56 AM,37.9,21.9,53,30.32,10.0,West,11.5,16.1,N/A,,Clear,280,2013-01-04 14:56:00
10:56 AM,41.0,21.0,45,30.32,10.0,West,13.8,19.6,N/A,,Clear,280,2013-01-04 15:56:00
11:56 AM,44.1,21.0,40,30.27,10.0,West,8.1,-,N/A,,Clear,280,2013-01-04 16:56:00
12:56 PM,46.9,19.0,33,30.25,10.0,WNW,11.5,-,N/A,,Clear,290,2013-01-04 17:56:00
1:56 PM,48.9,19.0,31,30.22,10.0,West,9.2,-,N/A,,Clear,270,2013-01-04 18:56:00
2:56 PM,50.0,18.0,28,30.20,10.0,WNW,9.2,-,N/A,,Clear,290,2013-01-04 19:56:00
3:56 PM,50.0,18.0,28,30.21,10.0,WNW,9.2,-,N/A,,Clear,290,2013-01-04 20:56:00
4:56 PM,46.9,19.0,33,30.21,10.0,West,5.8,-,N/A,,Mostly Cloudy,280,2013-01-04 21:56:00
5:56 PM,46.0,21.9,39,30.22,10.0,Calm,Calm,-,N/A,,Overcast,0,2013-01-04 22:56:00
6:56 PM,44.1,25.0,47,30.25,10.0,Calm,Calm,-,N/A,,Overcast,0,2013-01-04 23:56:00
7:56 PM,44.1,17.1,34,30.28,10.0,West,15.0,24.2,N/A,,Clear,280,2013-01-05 00:56:00
8:56 PM,41.0,18.0,40,30.30,10.0,WNW,10.4,-,N/A,,Clear,300,2013-01-05 01:56:00
9:56 PM,37.9,19.0,47,30.31,10.0,WNW,5.8,-,N/A,,Clear,300,2013-01-05 02:56:00
10:56 PM,35.1,19.9,54,30.30,10.0,WNW,3.5,-,N/A,,Clear,290,2013-01-05 03:56:00
11:56 PM,33.1,19.9,59,30.30,10.0,Calm,Calm,-,N/A,,Clear,0,2013-01-05 04:56:00